Stations météo

réclame
Mon MeteoGroup
Freiburg, Allemagne (10803): Température de l'air & dewpoint: 11.12.2018 06:00:00 - 17.12.2018 06:00:00 (CET)Freiburg, Allemagne (10803): Température de l'air 5cm & Température de l'air -5cm: 11.12.2018 06:00:00 - 17.12.2018 06:00:00 (CET)Freiburg, Allemagne (10803): Température de l'air -20cm & Température de l'air -100cm: 11.12.2018 06:00:00 - 17.12.2018 06:00:00 (CET)Freiburg, Allemagne (10803): Vitesse du vent & gusts: 11.12.2018 06:00:00 - 17.12.2018 06:00:00 (CET)Freiburg, Allemagne (10803): Direction du vent: 11.12.2018 06:00:00 - 17.12.2018 06:00:00 (CET)Freiburg, Allemagne (10803): reduced air pressure: 11.12.2018 06:00:00 - 17.12.2018 06:00:00 (CET)Freiburg, Allemagne (10803): visibility: 11.12.2018 06:00:00 - 17.12.2018 06:00:00 (CET)Freiburg, Allemagne (10803): Ensoleillement: 11.12.2018 06:00:00 - 17.12.2018 06:00:00 (CET)Freiburg, Allemagne (10803): Quantités de précipitations: 11.12.2018 06:00:00 - 17.12.2018 06:00:00 (CET)
Date & Time tt [°C] td [°C] tt 5cm [°C] tt -5cm [°C] tt -20cm [°C] tt -100cm [°C] ff [km/h] ff [knt] fx [km/h] fx [knt] dd ppp [hPa] vv [km] sd [min] rr [mm]
17.12.2018 06:00:00 1,5 1,0 0,8 0,4 2,1 8,1 3 2 6 3 W 1019,7 4,2 0 0,0
17.12.2018 05:00:00 1,7 1,3 1,3 0,4 2,1 8,2 5 3 10 5 SE 1019,3 6 0 0,0
17.12.2018 04:00:00 1,5 1,1 1,0 0,4 2,1 8,2 4 2 8 4 S 1018,6 9 0 0,0
17.12.2018 03:00:00 1,4 1,0 0,9 0,4 2,2 8,2 6 3 8 4 S 1018,2 4,5 0 0,0
17.12.2018 02:00:00 0,5 0,4 0,1 0,4 2,2 8,2 3 2 5 3 S 1017,6 0,2 0 0,0
17.12.2018 01:00:00 -0,8 -1,0 -1,9 0,4 2,3 8,2 4 2 10 5 NNE 1017,2 3,6 0 0,0
17.12.2018 00:00:00 -1,4 -1,7 -1,8 0,4 2,3 8,2 0 0 4 2 N 1017,4 1,7 0 0,0
16.12.2018 23:00:00 -0,6 -0,8 -2,5 0,4 2,4 8,2 3 1 4 2 S 1017,2 0,1 0 0,0
16.12.2018 22:00:00 -0,8 -1,0 -2,8 0,5 2,5 8,2 3 2 7 4 W 1016,8 1,0 0 0,0
16.12.2018 21:00:00 -0,2 -0,4 -2,2 0,5 2,6 8,3 0 0 7 4 N 1016,4 1,1 0 0,0
16.12.2018 20:00:00 -0,2 -0,5 -2,3 0,6 2,8 8,3 0 0 4 2 N 1016,7 0,2 0 0,0
16.12.2018 19:00:00 0,4 0,2 -2,4 0,7 2,9 8,3 2 1 5 3 N 1015,9 7 0 0,0
16.12.2018 18:00:00 1,9 1,4 -1,6 1,1 3,0 8,3 2 1 7 4 NNE 1015,4 8 0 0,0
16.12.2018 17:00:00 4,0 2,3 -0,3 2,2 2,8 8,3 3 2 8 4 ENE 1014,8 8 0 0,0
16.12.2018 16:00:00 6,3 3,0 4,7 3,6 2,5 8,3 6 4 24 13 WSW 1014,3 53 35 0,0
16.12.2018 15:00:00 7,2 3,7 7,9 3,7 2,1 8,3 16 9 26 14 WSW 1013,9 44 60 0,0
16.12.2018 14:00:00 7,7 4,0 8,8 1,6 1,8 8,3 18 10 29 15 SW 1014,0 38 60 0,0
16.12.2018 13:00:00 7,3 4,2 8,6 0,2 1,8 8,4 15 8 28 15 SW 1014,4 36 25 0,0
16.12.2018 12:00:00 5,7 3,8 5,4 0,1 1,8 8,4 16 9 29 16 SW 1015,0 27 8 0,0
16.12.2018 11:00:00 4,9 3,3 3,5 0,1 1,8 8,4 17 9 30 16 SW 1015,2 21 0 0,0
16.12.2018 10:00:00 3,5 2,1 2,4 0,1 1,8 8,4 18 10 27 15 SW 1015,0 16 0 0,0
16.12.2018 09:00:00 2,4 1,2 0,3 0,1 1,8 8,4 12 7 19 10 WSW 1014,8 18 0 0,0
16.12.2018 08:00:00 -0,6 -1,4 -0,3 0,0 1,8 8,4 1 1 6 3 ENE 1014,4 3,1 0 0,1
16.12.2018 07:00:00 -0,8 -1,6 -0,5 0,0 1,8 8,4 4 2 17 9 SW 1014,5 2,5 0 0,0
16.12.2018 06:00:00 -1,1 -1,7 -0,2 0,0 1,9 8,4 5 3 8 4 NNW 1014,3 1,8 0 0,3
16.12.2018 05:00:00 -0,6 -1,4 -0,3 0,0 1,9 8,5 4 2 6 3 W 1013,9 3,2 0 0,5
16.12.2018 04:00:00 -1,3 -2,4 -0,6 0,0 1,9 8,5 5 3 11 6 NNW 1014,1 4,3 0 1,6
16.12.2018 03:00:00 -2,2 -3,6 -1,7 0,0 1,9 8,5 5 3 9 5 NNE 1015,4 1,3 0 0,5
16.12.2018 02:00:00 -1,7 -4,2 -1,2 0,0 1,9 8,5 4 2 6 4 N 1016,5 3,8 0 0,0
16.12.2018 01:00:00 -2,1 -4,5 -1,8 0,0 1,9 8,5 2 1 4 2 NW 1018,1 8 0 0,0
16.12.2018 00:00:00 -2,5 -4,8 -2,1 0,0 2,0 8,5 4 2 7 4 NNW 1019,2 8 0 0,0
15.12.2018 23:00:00 -2,6 -5,1 -2,3 0,0 2,0 8,5 5 3 6 4 NNW 1019,5 7 0 0,0
15.12.2018 22:00:00 -2,5 -5,1 -3,3 0,1 2,0 8,6 4 2 7 4 SE 1020,7 7 0 0,0
15.12.2018 21:00:00 -3,3 -5,4 -4,2 0,1 2,1 8,6 4 2 6 3 SW 1021,5 7 0 0,0
15.12.2018 20:00:00 -3,6 -5,6 -5,1 0,2 2,1 8,6 3 2 5 3 NNW 1022,1 8 0 0,0
15.12.2018 19:00:00 -3,1 -5,1 -4,5 0,2 2,1 8,6 2 1 7 4 N 1022,9 7 0 0,0
15.12.2018 18:00:00 -2,1 -5,5 -4,6 0,2 2,2 8,6 4 2 6 4 S 1023,7 9 0 0,0
15.12.2018 17:00:00 -1,8 -5,1 -4,0 0,2 2,2 8,6 3 2 8 5 W 1023,4 11 0 0,0
15.12.2018 16:00:00 0,2 -5,8 -0,6 0,2 2,1 8,6 5 3 12 7 WNW 1023,7 14 34 0,0
15.12.2018 15:00:00 1,2 -5,7 2,7 0,1 1,9 8,7 6 3 14 8 W 1024,2 16 60 0,0
15.12.2018 14:00:00 1,1 -6,3 3,5 0,0 1,9 8,7 8 4 15 8 WSW 1024,2 15 60 0,0
15.12.2018 13:00:00 0,8 -6,4 3,0 0,0 1,8 8,7 8 4 13 7 W 1024,3 14 57 0,0
15.12.2018 12:00:00 0,7 -6,1 1,9 0,0 1,8 8,7 5 3 8 4 SW 1025,1 15 19 0,0
15.12.2018 11:00:00 0,2 -6,2 0,4 0,0 1,8 8,7 6 3 9 5 SSE 1026,1 16 0 0,0
15.12.2018 10:00:00 -0,2 -6,9 -0,4 0,0 1,8 8,7 6 3 10 5 ESE 1025,9 18 29 0,0
15.12.2018 09:00:00 -0,2 -6,7 -0,2 0,0 1,8 8,7 11 6 16 9 SE 1025,5 18 0 0,0
15.12.2018 08:00:00 -0,1 -6,3 -0,3 0,0 1,8 8,8 9 5 16 9 ESE 1025,4 17 0 0,0
15.12.2018 07:00:00 -0,6 -3,8 -0,8 0,0 1,8 8,8 4 2 6 4 N 1025,4 9 0 0,0
15.12.2018 06:00:00 -0,7 -3,4 -1,0 0,0 1,8 8,8 5 3 8 4 NW 1025,3 9 0 0,0
15.12.2018 05:00:00 -0,4 -3,8 -0,6 0,0 1,8 8,8 5 3 8 4 NE 1025,2 8 0 0,0
15.12.2018 04:00:00 -0,3 -4,0 -0,7 -0,1 1,8 8,8 2 1 6 3 NE 1025,7 10 0 0,0
15.12.2018 03:00:00 -0,4 -4,1 -0,7 -0,1 1,8 8,8 4 2 7 4 N 1025,3 12 0 0,0
15.12.2018 02:00:00 -0,5 -3,5 -0,9 -0,1 1,8 8,9 3 2 4 2 NNW 1024,6 11 0 0,0
15.12.2018 01:00:00 -0,5 -3,6 -0,8 -0,1 1,8 8,9 2 1 5 3 NW 1024,5 11 0 0,0
15.12.2018 00:00:00 -0,3 -3,9 -0,8 -0,1 1,8 8,9 2 1 5 3 W 1024,0 12 0 0,0
14.12.2018 23:00:00 -0,1 -4,3 -0,7 -0,1 1,8 8,9 2 1 4 2 WNW 1023,9 12 0 0,0
14.12.2018 22:00:00 -0,1 -4,1 -0,6 -0,1 1,8 8,9 4 2 8 4 W 1024,4 12 0 0,0
14.12.2018 21:00:00 0,0 -3,4 -0,7 -0,1 1,8 8,9 3 2 5 3 W 1024,0 12 0 0,0
14.12.2018 20:00:00 0,2 -4,0 -0,4 -0,1 1,8 8,9 4 2 8 5 NW 1023,5 13 0 0,0
14.12.2018 19:00:00 0,4 -4,0 -0,2 -0,1 1,8 9,0 4 2 10 5 W 1023,1 14 0 0,0
14.12.2018 18:00:00 0,4 -3,9 -0,1 -0,1 1,8 9,0 5 3 9 5 WNW 1022,2 14 0 0,0
14.12.2018 17:00:00 0,7 -4,2 0,2 -0,1 1,8 9,0 6 4 13 7 WNW 1021,4 15 0 0,0
14.12.2018 16:00:00 1,3 -4,5 0,9 -0,2 1,8 9,0 9 5 16 9 WNW 1020,6 16 5 0,0
14.12.2018 15:00:00 2,0 -4,7 2,2 -0,2 1,8 9,0 8 4 13 7 WNW 1019,8 14 49 0,0
14.12.2018 14:00:00 1,9 -4,9 3,7 -0,2 1,8 9,0 7 4 13 7 WNW 1019,5 14 60 0,0
14.12.2018 13:00:00 1,6 -4,4 4,1 -0,3 1,9 9,1 6 4 9 5 WNW 1019,6 14 60 0,0
14.12.2018 12:00:00 0,1 -4,1 1,7 -0,5 1,9 9,1 3 2 5 3 WSW 1020,0 11 49 0,0
14.12.2018 11:00:00 -1,7 -4,3 -1,4 -0,7 2,0 9,1 3 1 4 2 N 1020,3 9 16 0,0
14.12.2018 10:00:00 -3,5 -5,2 -4,0 -1,1 2,0 9,1 0 0 4 2 N 1020,0 7 1 0,0
14.12.2018 09:00:00 -4,6 -5,9 -6,3 -1,1 2,1 9,1 3 2 5 3 NNW 1019,2 6 0 0,0
14.12.2018 08:00:00 -3,9 -5,5 -6,3 -0,8 2,1 9,1 0 0 10 5 N 1018,5 9 0 0,0
14.12.2018 07:00:00 -3,3 -6,2 -5,8 -0,4 2,2 9,1 4 2 13 7 N 1017,8 15 0 0,0
14.12.2018 06:00:00 -3,9 -6,8 -5,6 -0,2 2,2 9,2 4 2 14 8 NE 1017,6 14 0 0,0
14.12.2018 05:00:00 -1,3 -5,8 -3,8 0,0 2,3 9,2 6 3 13 7 NNE 1017,2 18 0 0,0
14.12.2018 04:00:00 -0,5 -5,8 -4,3 0,1 2,3 9,2 6 3 11 6 NNE 1017,0 19 0 0,0
14.12.2018 03:00:00 0,2 -5,8 -2,8 0,1 2,3 9,2 5 3 18 10 E 1016,6 20 0 0,0
14.12.2018 02:00:00 0,1 -5,6 -2,0 0,2 2,4 9,2 8 4 21 11 NE 1016,2 12 0 0,0
14.12.2018 01:00:00 0,3 -5,5 -1,3 0,2 2,4 9,2 8 4 16 9 ENE 1016,1 17 0 0,0
14.12.2018 00:00:00 0,6 -5,7 -1,1 0,3 2,4 9,2 10 6 22 12 NE 1016,0 14 0 0,0
13.12.2018 23:00:00 1,2 -5,3 -0,6 0,3 2,4 9,3 12 6 21 12 NNE 1015,7 24 0 0,0
13.12.2018 22:00:00 0,5 -3,9 -1,4 0,3 2,4 9,3 8 5 14 8 N 1015,5 18 0 0,0
13.12.2018 21:00:00 1,0 -3,7 -0,7 0,3 2,4 9,3 7 4 12 7 N 1015,1 18 0 0,0
13.12.2018 20:00:00 1,3 -3,4 -0,1 0,3 2,5 9,3 8 4 16 9 NNE 1014,8 15 0 0,0
13.12.2018 19:00:00 1,3 -3,1 0,5 0,3 2,5 9,3 8 4 17 9 NNE 1014,9 17 0 0,0
13.12.2018 18:00:00 1,5 -3,1 0,9 0,3 2,5 9,3 7 4 18 10 NE 1014,9 15 0 0,0
13.12.2018 17:00:00 1,7 -3,6 0,8 0,3 2,5 9,3 9 5 18 10 NNE 1015,0 28 0 0,0
13.12.2018 16:00:00 2,0 -3,7 1,4 0,3 2,5 9,4 10 6 20 11 NNE 1014,7 34 0 0,0
13.12.2018 15:00:00 2,9 -5,3 2,2 0,3 2,5 9,4 12 7 28 15 ENE 1014,6 41 0 0,0
13.12.2018 14:00:00 3,1 -5,2 2,3 0,3 2,6 9,4 13 7 23 13 E 1014,6 45 0 0,0
13.12.2018 13:00:00 1,5 -1,6 0,9 0,3 2,6 9,4 15 8 23 12 NW 1014,6 18 5 0,0
13.12.2018 12:00:00 2,1 -1,2 2,0 0,3 2,6 9,4 6 4 11 6 W 1014,8 18 27 0,0
13.12.2018 11:00:00 -0,1 -2,1 -0,5 0,3 2,6 9,4 4 2 11 6 NW 1015,9 17 26 0,0
13.12.2018 10:00:00 -0,3 -2,3 0,0 0,2 2,7 9,4 4 2 8 5 N 1016,2 17 39 0,0
13.12.2018 09:00:00 -0,6 -2,6 -1,2 0,2 2,7 9,5 6 3 10 5 NNE 1016,5 14 0 0,0
13.12.2018 08:00:00 -1,7 -3,1 -4,3 0,3 2,8 9,5 4 2 13 7 NNW 1016,6 15 0 0,0
13.12.2018 07:00:00 -0,6 -3,1 -1,9 0,3 2,8 9,5 10 6 16 9 N 1016,5 30 0 0,0
13.12.2018 06:00:00 -1,6 -2,6 -2,0 0,3 2,8 9,5 6 3 11 6 N 1017,2 11 0 0,0
13.12.2018 05:00:00 -2,4 -3,2 -2,8 0,4 2,9 9,5 8 5 13 7 NNW 1017,8 7 0 0,0
13.12.2018 04:00:00 -1,6 -2,3 -2,2 0,4 2,9 9,5 5 3 8 5 N 1018,1 7 0 0,0
13.12.2018 03:00:00 -2,4 -2,9 -2,1 0,4 3,0 9,5 3 2 7 4 WNW 1019,1 3,2 0 0,0
13.12.2018 02:00:00 -2,6 -3,6 -4,3 0,4 3,0 9,5 0 0 10 5 N 1019,7 7 0 0,0
13.12.2018 01:00:00 -2,4 -3,1 -1,9 0,5 3,1 9,6 5 3 10 5 NW 1020,1 7 0 0,0
13.12.2018 00:00:00 -2,6 -3,3 -3,4 0,5 3,2 9,6 2 1 9 5 WSW 1020,6 5 0 0,0
12.12.2018 23:00:00 -2,3 -2,6 -2,3 0,6 3,2 9,6 4 2 8 5 NW 1021,0 1,7 0 0,0
12.12.2018 22:00:00 -2,0 -2,1 -1,5 0,7 3,3 9,6 4 2 8 4 N 1021,5 0,3 0 0,0
12.12.2018 21:00:00 -1,6 -1,7 -1,0 0,7 3,3 9,6 4 2 10 5 N 1021,9 0,1 0 0,0
12.12.2018 20:00:00 -1,1 -1,3 -0,5 0,9 3,4 9,6 4 2 6 3 N 1022,1 0,1 0 0,0
12.12.2018 19:00:00 -0,7 -1,0 -0,2 1,0 3,4 9,6 3 2 7 4 NW 1022,0 0,2 0 0,0
12.12.2018 18:00:00 -0,4 -0,9 0,1 1,0 3,5 9,6 4 2 10 5 NNW 1022,3 1,7 0 0,0
12.12.2018 17:00:00 0,0 -0,5 0,1 0,9 3,4 9,6 5 3 23 13 N 1022,2 2,3 0 0,0
12.12.2018 16:00:00 1,7 -0,6 1,5 1,4 3,3 9,7 12 6 16 9 NNW 1022,1 10 12 0,0
12.12.2018 15:00:00 4,8 -3,3 5,5 1,4 3,1 9,7 8 4 22 12 ENE 1022,0 56 56 0,0
12.12.2018 14:00:00 3,0 -0,8 7,4 0,4 3,1 9,7 7 4 15 8 NNW 1022,8 16 43 0,0
12.12.2018 13:00:00 1,2 -1,7 3,8 0,1 3,1 9,7 9 5 16 9 NNW 1023,7 17 60 0,0
12.12.2018 12:00:00 1,6 -1,9 3,6 0,1 3,2 9,7 10 5 13 7 NNE 1024,2 21 60 0,0
12.12.2018 11:00:00 0,8 -2,7 2,4 0,1 3,3 9,7 7 4 10 6 N 1025,0 49 60 0,0
12.12.2018 10:00:00 -1,2 -3,0 0,2 0,1 3,4 9,7 3 2 7 4 NNE 1025,3 27 51 0,0
12.12.2018 09:00:00 -3,9 -4,9 -4,9 0,1 3,5 9,7 4 2 7 4 N 1025,6 16 0 0,0
12.12.2018 08:00:00 -4,1 -5,1 -5,8 0,2 3,6 9,7 5 3 6 4 N 1025,4 16 0 0,0
12.12.2018 07:00:00 -4,4 -5,7 -6,2 0,3 3,7 9,7 3 2 7 4 NNW 1025,6 19 0 0,0
12.12.2018 06:00:00 -4,2 -4,8 -5,3 0,4 3,8 9,7 2 1 4 2 W 1025,3 16 0 0,0
12.12.2018 05:00:00 -3,8 -4,8 -5,3 0,5 3,9 9,7 0 0 3 2 N 1025,5 22 0 0,0
12.12.2018 04:00:00 -3,2 -3,8 -5,1 0,6 4,1 9,8 0 0 4 2 N 1025,7 22 0 0,0
12.12.2018 03:00:00 -2,3 -3,5 -3,7 0,6 4,2 9,8 0 0 9 5 N 1025,8 25 0 0,0
12.12.2018 02:00:00 -2,3 -3,2 -4,6 0,7 4,4 9,8 5 3 7 4 NNW 1025,9 31 0 0,0
12.12.2018 01:00:00 -2,5 -3,7 -4,6 0,8 4,6 9,8 2 1 11 6 WSW 1025,9 39 0 0,0
12.12.2018 00:00:00 -2,0 -2,9 -3,8 0,9 4,8 9,8 3 1 5 3 N 1025,8 32 0 0,0
11.12.2018 23:00:00 -1,0 -2,6 -3,0 1,0 5,0 9,8 0 0 13 7 N 1025,4 32 0 0,0
11.12.2018 22:00:00 0,8 -1,4 -1,5 1,6 5,2 9,8 4 2 8 4 S 1025,2 38 0 0,0
11.12.2018 21:00:00 2,5 -0,8 0,5 2,5 5,3 9,8 5 3 6 4 NNE 1025,5 45 0 0,0
11.12.2018 20:00:00 2,7 -0,9 1,4 2,9 5,5 9,8 4 2 8 5 NNE 1025,5 51 0 0,0
11.12.2018 19:00:00 2,4 -0,9 1,5 3,1 5,6 9,8 3 2 9 5 N 1025,5 58 0 0,0
11.12.2018 18:00:00 2,3 -0,9 1,4 3,3 5,7 9,8 2 1 7 4 SSE 1025,4 44 0 0,0
11.12.2018 17:00:00 3,9 -1,1 1,7 3,9 5,7 9,8 3 1 8 4 NE 1025,1 19 0 0,0
11.12.2018 16:00:00 4,7 -1,7 4,8 4,9 5,6 9,8 6 3 10 5 NE 1025,1 42 0 0,0
11.12.2018 15:00:00 5,1 -1,1 5,6 6,0 5,3 9,8 5 3 12 7 N 1025,2 63 7 0,0
11.12.2018 14:00:00 5,5 -2,4 9,2 6,6 4,9 9,8 8 4 14 7 NNW 1025,4 48 54 0,0
11.12.2018 13:00:00 5,0 -1,8 6,5 3,6 4,8 9,8 4 2 6 3 NNE 1025,9 47 26 0,0
11.12.2018 12:00:00 3,3 0,2 1,7 2,7 4,8 9,8 0 0 7 4 N 1026,6 28 2 0,0
11.12.2018 11:00:00 2,8 0,2 2,7 3,2 4,8 9,8 6 3 9 5 NW 1027,1 31 55 0,0
11.12.2018 10:00:00 1,9 0,8 3,3 1,2 5,0 9,9 4 2 6 4 N 1026,9 13 52 0,0
11.12.2018 09:00:00 0,3 0,0 -1,7 1,1 5,2 9,9 3 2 5 3 SW 1027,0 7 0 0,0
11.12.2018 08:00:00 -0,4 -0,7 -2,3 1,2 5,5 9,9 4 2 5 3 SW 1026,9 4,9 0 0,0
11.12.2018 07:00:00 0,5 0,1 -2,0 1,8 5,7 9,9 3 2 12 6 WNW 1026,8 3,9 0 0,0
11.12.2018 06:00:00 1,4 0,7 0,8 2,8 5,8 9,9 0 0 7 4 N 1026,7 10 0 0,0

tt = Température de l'air
td = dewpoint
tt 5cm = Température de l'air 5cm
tt -5cm = Température de l'air -5cm
tt -20cm = Température de l'air -20cm
tt -100cm = Température de l'air -100cm
ff = Vitesse du vent
fx = gusts
dd = Direction du vent
ppp = reduced air pressure
vv = visibility
sd = Ensoleillement
rr = Quantités de précipitations

stations d'obs. à proximité